| time (UTC) | temp F | wind direction | speed MPH | gust MPH | rain 1hr in | rain 24hr in | rain mn in | humidity % | barometer mb |
| 20260905045159 | 66 | 339 | 0.0 | 0.0 | 0.00 | 0.00 | 0.00 | 99 | 1011.0 |
| 20260905044654 | 66 | 339 | 0.0 | 0.0 | 0.00 | 0.00 | 0.00 | 99 | 1010.8 |
| 20260905044149 | 66 | 339 | 0.0 | 0.0 | 0.00 | 0.00 | 0.00 | 99 | 1010.8 |
| 20260905043648 | 66 | 339 | 0.0 | 0.0 | 0.00 | 0.00 | 0.00 | 99 | 1010.8 |
| 20260905043143 | 66 | 339 | 0.0 | 0.0 | 0.00 | 0.00 | 0.00 | 99 | 1010.6 |
| 20260905042642 | 66 | 339 | 0.0 | 0.0 | 0.00 | 0.00 | 0.00 | 99 | 1010.8 |
| 20260905042137 | 66 | 339 | 0.0 | 0.0 | 0.00 | 0.00 | 0.00 | 99 | 1010.9 |
| 20260905041633 | 67 | 339 | 0.0 | 0.0 | 0.00 | 0.00 | 0.00 | 99 | 1010.9 |
| 20260905041129 | 67 | 339 | 0.0 | 0.0 | 0.00 | 0.00 | 0.00 | 99 | 1010.8 |
| 20260905040628 | 67 | 339 | 0.0 | 0.0 | 0.00 | 0.00 | 0.00 | 99 | 1011.0 |
| 20260905040121 | 67 | 339 | 0.0 | 0.0 | 0.00 | 0.00 | 0.00 | 99 | 1010.9 |
| 20260905035617 | 67 | 339 | 0.0 | 0.0 | 0.00 | 0.83 | 0.83 | 99 | 1010.9 |
| 20260905035113 | 67 | 339 | 0.0 | 0.0 | 0.00 | 0.83 | 0.83 | 99 | 1010.9 |
| 20260905034608 | 67 | 339 | 0.0 | 0.0 | 0.00 | 0.83 | 0.83 | 99 | 1010.9 |
| 20260905034102 | 67 | 339 | 0.0 | 0.0 | 0.00 | 0.83 | 0.83 | 99 | 1010.9 |
| 20260905033601 | 67 | 339 | 0.0 | 0.0 | 0.00 | 0.83 | 0.83 | 99 | 1010.9 |
| 20260905033058 | 67 | 339 | 0.0 | 0.0 | 0.00 | 0.83 | 0.83 | 99 | 1011.0 |
| 20260905032557 | 68 | 339 | 0.0 | 0.0 | 0.00 | 0.83 | 0.83 | 99 | 1011.0 |
| 20260905032052 | 68 | 339 | 0.0 | 0.0 | 0.00 | 0.83 | 0.83 | 99 | 1010.8 |
| 20260905031548 | 68 | 339 | 0.0 | 0.0 | 0.00 | 0.83 | 0.83 | 99 | 1011.1 |
| 20260905031048 | 68 | 339 | 0.0 | 0.0 | 0.00 | 0.83 | 0.83 | 99 | 1010.9 |
| 20260905030543 | 68 | 339 | 0.0 | 0.0 | 0.00 | 0.83 | 0.83 | 99 | 1010.6 |
| 20260905030043 | 68 | 339 | 0.0 | 0.0 | 0.00 | 0.83 | 0.83 | 99 | 1010.8 |
| 20260905025538 | 68 | 339 | 0.0 | 0.0 | 0.00 | 0.83 | 0.83 | 99 | 1010.9 |
| 20260905025035 | 68 | 339 | 0.0 | 0.0 | 0.00 | 0.83 | 0.83 | 99 | 1010.6 |
| 20260905024531 | 68 | 339 | 0.0 | 0.0 | 0.00 | 0.83 | 0.83 | 99 | 1010.9 |
| 20260905024026 | 68 | 339 | 0.0 | 0.0 | 0.00 | 0.83 | 0.83 | 99 | 1010.8 |
| 20260905023521 | 68 | 339 | 0.0 | 0.0 | 0.00 | 0.83 | 0.83 | 99 | 1010.9 |
| 20260905023021 | 68 | 339 | 0.0 | 0.0 | 0.00 | 0.83 | 0.83 | 99 | 1010.8 |
| 20260905022520 | 68 | 339 | 0.0 | 0.0 | 0.00 | 0.83 | 0.83 | 99 | 1010.8 |
| 20260905022016 | 69 | 339 | 0.0 | 0.0 | 0.00 | 0.83 | 0.83 | 99 | 1010.5 |
| 20260905021515 | 69 | 333 | 0.0 | 0.0 | 0.00 | 0.83 | 0.83 | 99 | 1010.4 |
| 20260905021010 | 69 | 333 | 0.0 | 0.0 | 0.00 | 0.83 | 0.83 | 99 | 1010.5 |
| 20260905020505 | 69 | 339 | 0.0 | 0.0 | 0.00 | 0.83 | 0.83 | 99 | 1010.4 |
| 20260905020005 | 69 | 339 | 0.0 | 0.0 | 0.00 | 0.83 | 0.83 | 99 | 1010.1 |
| 20260905015503 | 69 | 339 | 0.0 | 0.0 | 0.00 | 0.83 | 0.83 | 99 | 1010.0 |
| 20260905015003 | 69 | 339 | 0.0 | 0.0 | 0.00 | 0.83 | 0.83 | 99 | 1009.9 |
| 20260905014458 | 69 | 340 | 0.0 | 0.0 | 0.00 | 0.83 | 0.83 | 99 | 1010.0 |
| 20260905013953 | 69 | 340 | 0.0 | 0.0 | 0.00 | 0.83 | 0.83 | 99 | 1009.8 |
| 20260905013444 | 69 | 340 | 0.0 | 0.0 | 0.00 | 0.83 | 0.83 | 99 | 1009.7 |
| 20260905012938 | 69 | 340 | 0.0 | 0.0 | 0.00 | 0.83 | 0.83 | 99 | 1009.7 |
| 20260905012434 | 69 | 340 | 0.0 | 0.0 | 0.00 | 0.83 | 0.83 | 99 | 1009.9 |
| 20260905011930 | 69 | 340 | 0.0 | 0.0 | 0.00 | 0.83 | 0.83 | 99 | 1009.9 |
| 20260905011426 | 69 | 340 | 0.0 | 0.0 | 0.00 | 0.83 | 0.83 | 99 | 1010.0 |
| 20260905010921 | 69 | 340 | 0.0 | 0.0 | 0.00 | 0.83 | 0.83 | 99 | 1009.7 |
| 20260905010416 | 69 | 340 | 0.0 | 0.0 | 0.00 | 0.83 | 0.83 | 99 | 1009.7 |
| 20260905005912 | 69 | 340 | 0.0 | 0.0 | 0.00 | 0.83 | 0.83 | 99 | 1009.8 |
| 20260905005408 | 69 | 340 | 0.0 | 0.0 | 0.00 | 0.83 | 0.83 | 99 | 1009.9 |
| 20260905004903 | 69 | 340 | 0.0 | 0.0 | 0.00 | 0.83 | 0.83 | 99 | 1009.8 |
| 20260905004403 | 69 | 340 | 0.0 | 0.0 | 0.00 | 0.83 | 0.83 | 99 | 1009.7 |
| 20260905003858 | 69 | 340 | 0.0 | 0.0 | 0.00 | 0.83 | 0.83 | 99 | 1009.7 |
| 20260905003354 | 70 | 340 | 0.0 | 0.0 | 0.00 | 0.83 | 0.83 | 99 | 1009.8 |
| 20260905002850 | 70 | 338 | 0.0 | 0.0 | 0.00 | 0.83 | 0.83 | 99 | 1009.9 |
| 20260905002344 | 70 | 347 | 0.0 | 0.0 | 0.00 | 0.83 | 0.83 | 99 | 1009.7 |
| 20260905001838 | 70 | 354 | 0.0 | 0.0 | 0.00 | 0.83 | 0.83 | 99 | 1009.7 |
| 20260905001333 | 70 | 354 | 0.0 | 0.0 | 0.00 | 0.83 | 0.83 | 99 | 1009.7 |
| 20260905000828 | 71 | 352 | 0.0 | 0.0 | 0.00 | 0.83 | 0.83 | 99 | 1009.5 |
| 20260905000325 | 71 | 347 | 0.0 | 0.0 | 0.00 | 0.83 | 0.83 | 99 | 1009.6 |
| 20260904235819 | 71 | 5 | 0.0 | 1.0 | 0.00 | 0.83 | 0.83 | 99 | 1009.5 |
| 20260904235314 | 72 | 2 | 0.0 | 0.0 | 0.00 | 0.83 | 0.83 | 99 | 1009.7 |
| 20260904234808 | 72 | 0 | 0.0 | 0.0 | 0.00 | 0.83 | 0.83 | 99 | 1009.6 |
| 20260904234258 | 73 | 332 | 1.0 | 2.0 | 0.00 | 0.83 | 0.83 | 98 | 1009.5 |
| 20260904233753 | 73 | 335 | 1.0 | 1.0 | 0.00 | 0.83 | 0.83 | 96 | 1009.6 |
| 20260904233244 | 73 | 341 | 0.0 | 0.0 | 0.00 | 0.83 | 0.83 | 93 | 1009.7 |
| 20260904232741 | 75 | 342 | 1.0 | 1.0 | 0.00 | 0.83 | 0.83 | 90 | 1009.6 |
| 20260904232236 | 74 | 343 | 1.0 | 1.0 | 0.00 | 0.83 | 0.83 | 90 | 1009.6 |
| 20260904231731 | 74 | 342 | 0.0 | 1.0 | 0.00 | 0.83 | 0.83 | 89 | 1009.6 |
| 20260904231227 | 74 | 344 | 0.0 | 0.0 | 0.00 | 0.83 | 0.83 | 90 | 1009.7 |
| 20260904230727 | 75 | 343 | 0.0 | 0.0 | 0.00 | 0.83 | 0.83 | 89 | 1009.7 |
| 20260904230221 | 75 | 342 | 1.0 | 1.0 | 0.00 | 0.83 | 0.83 | 87 | 1009.8 |
| 20260904225720 | 75 | 344 | 0.0 | 1.0 | 0.00 | 0.83 | 0.83 | 88 | 1009.9 |
| 20260904225215 | 73 | 342 | 2.0 | 2.0 | 0.00 | 0.83 | 0.83 | 93 | 1009.8 |
| 20260904224714 | 73 | 340 | 0.0 | 1.0 | 0.00 | 0.83 | 0.83 | 95 | 1009.7 |
| 20260904224209 | 72 | 341 | 1.0 | 1.0 | 0.00 | 0.83 | 0.83 | 98 | 1009.9 |
| 20260904223708 | 72 | 342 | 0.0 | 1.0 | 0.00 | 0.83 | 0.83 | 99 | 1009.9 |
| 20260904223203 | 73 | 343 | 0.0 | 0.0 | 0.00 | 0.83 | 0.83 | 99 | 1010.1 |
| 20260904222659 | 73 | 343 | 0.0 | 0.0 | 0.00 | 0.83 | 0.83 | 99 | 1010.4 |
| 20260904222155 | 72 | 343 | 0.0 | 0.0 | 0.00 | 0.83 | 0.83 | 99 | 1010.2 |
| 20260904221654 | 72 | 344 | 0.0 | 0.0 | 0.00 | 0.83 | 0.83 | 99 | 1010.3 |
| 20260904221149 | 73 | 344 | 0.0 | 0.0 | 0.00 | 0.83 | 0.83 | 99 | 1010.2 |
| 20260904220643 | 73 | 344 | 0.0 | 0.0 | 0.00 | 0.83 | 0.83 | 99 | 1010.2 |
| 20260904220138 | 73 | 344 | 0.0 | 0.0 | 0.00 | 0.83 | 0.83 | 99 | 1010.1 |
| 20260904215633 | 73 | 343 | 0.0 | 0.0 | 0.00 | 0.83 | 0.83 | 99 | 1010.1 |
| 20260904215130 | 73 | 344 | 0.0 | 0.0 | 0.00 | 0.83 | 0.83 | 99 | 1010.0 |
| 20260904214630 | 73 | 344 | 0.0 | 0.0 | 0.00 | 0.83 | 0.83 | 99 | 1009.9 |
| 20260904214125 | 72 | 344 | 0.0 | 0.0 | 0.00 | 0.83 | 0.83 | 99 | 1010.0 |
| 20260904213623 | 72 | 344 | 0.0 | 0.0 | 0.00 | 0.83 | 0.83 | 99 | 1010.2 |
| 20260904213119 | 72 | 344 | 0.0 | 0.0 | 0.00 | 0.83 | 0.83 | 99 | 1010.2 |
| 20260904212614 | 72 | 344 | 0.0 | 0.0 | 0.00 | 0.83 | 0.83 | 99 | 1010.2 |
| 20260904212109 | 72 | 344 | 0.0 | 0.0 | 0.00 | 0.83 | 0.83 | 99 | 1010.6 |
| 20260904211608 | 72 | 344 | 0.0 | 0.0 | 0.00 | 0.83 | 0.83 | 99 | 1011.0 |
| 20260904211103 | 72 | 344 | 0.0 | 0.0 | 0.00 | 0.83 | 0.83 | 99 | 1011.0 |
| 20260904210602 | 72 | 345 | 0.0 | 0.0 | 0.00 | 0.83 | 0.83 | 99 | 1010.9 |
| 20260904210059 | 72 | 344 | 0.0 | 0.0 | 0.00 | 0.83 | 0.83 | 99 | 1010.8 |
| 20260904205554 | 72 | 343 | 1.0 | 2.0 | 0.00 | 0.83 | 0.83 | 99 | 1011.0 |
| 20260904205050 | 72 | 339 | 0.0 | 1.0 | 0.00 | 0.83 | 0.83 | 99 | 1011.0 |
| 20260904204546 | 72 | 344 | 0.0 | 0.0 | 0.00 | 0.83 | 0.83 | 99 | 1011.1 |
| 20260904204042 | 72 | 344 | 0.0 | 0.0 | 0.00 | 0.83 | 0.83 | 99 | 1011.3 |
| 20260904203538 | 72 | 340 | 1.0 | 1.0 | 0.00 | 0.83 | 0.83 | 99 | 1011.2 |
| 20260904203034 | 72 | 341 | 1.0 | 1.0 | 0.00 | 0.83 | 0.83 | 99 | 1011.2 |
| 20260904202530 | 71 | 339 | 2.0 | 2.0 | 0.00 | 0.83 | 0.83 | 99 | 1011.1 |
| 20260904202026 | 71 | 331 | 2.0 | 2.0 | 0.00 | 0.83 | 0.83 | 99 | 1011.3 |
| 20260904201521 | 71 | 330 | 0.0 | 0.0 | 0.00 | 0.83 | 0.83 | 99 | 1011.0 |
| 20260904201016 | 71 | 330 | 0.0 | 0.0 | 0.00 | 0.83 | 0.83 | 99 | 1010.6 |
| 20260904200514 | 71 | 330 | 0.0 | 0.0 | 0.00 | 0.83 | 0.83 | 99 | 1010.4 |
| 20260904200005 | 71 | 330 | 0.0 | 0.0 | 0.00 | 0.83 | 0.83 | 99 | 1010.9 |
| 20260904195503 | 71 | 329 | 1.0 | 1.0 | 0.00 | 0.83 | 0.83 | 99 | 1010.5 |
| 20260904195002 | 71 | 333 | 0.0 | 0.0 | 0.00 | 0.83 | 0.83 | 99 | 1010.5 |
| 20260904194457 | 71 | 331 | 0.0 | 0.0 | 0.00 | 0.83 | 0.83 | 99 | 1010.5 |
| 20260904193952 | 71 | 333 | 0.0 | 0.0 | 0.00 | 0.83 | 0.83 | 99 | 1010.5 |
| 20260904193447 | 70 | 333 | 0.0 | 0.0 | 0.00 | 0.83 | 0.83 | 99 | 1010.4 |
| 20260904192942 | 70 | 331 | 0.0 | 0.0 | 0.00 | 0.83 | 0.83 | 99 | 1010.5 |
| 20260904192437 | 70 | 331 | 0.0 | 0.0 | 0.00 | 0.83 | 0.83 | 99 | 1010.8 |
| 20260904191934 | 70 | 331 | 0.0 | 0.0 | 0.00 | 0.83 | 0.83 | 99 | 1010.6 |
| 20260904191430 | 70 | 331 | 0.0 | 0.0 | 0.00 | 0.83 | 0.83 | 99 | 1010.8 |
| 20260904190926 | 70 | 331 | 0.0 | 0.0 | 0.07 | 0.83 | 0.83 | 99 | 1011.1 |
| 20260904190421 | 70 | 331 | 0.0 | 0.0 | 0.50 | 0.83 | 0.83 | 99 | 1010.6 |
| 20260904185917 | 70 | 331 | 0.0 | 0.0 | 1.25 | 0.82 | 0.82 | 99 | 1010.6 |
| 20260904185413 | 70 | 188 | 2.0 | 2.0 | 2.22 | 0.76 | 0.76 | 99 | 1011.0 |
| 20260904184913 | 70 | 340 | 1.0 | 1.0 | 3.52 | 0.62 | 0.62 | 99 | 1012.2 |
| 20260904184407 | 73 | 304 | 3.0 | 4.0 | 1.68 | 0.30 | 0.30 | 95 | 1013.2 |
| 20260904183903 | 80 | 39 | 5.0 | 7.0 | 0.00 | 0.02 | 0.02 | 88 | 1012.6 |
| 20260904183358 | 82 | 18 | 0.0 | 0.0 | 0.00 | 0.02 | 0.02 | 94 | 1010.3 |
| 20260904182854 | 83 | 7 | 0.0 | 1.0 | 0.00 | 0.02 | 0.02 | 94 | 1010.2 |
| 20260904182348 | 84 | 5 | 0.0 | 0.0 | 0.07 | 0.02 | 0.02 | 92 | 1009.9 |
| 20260904181843 | 83 | 348 | 0.0 | 1.0 | 0.07 | 0.02 | 0.02 | 87 | 1010.3 |
| 20260904181338 | 87 | 355 | 1.0 | 2.0 | 0.07 | 0.02 | 0.02 | 79 | 1010.4 |
| 20260904180834 | 88 | 12 | 0.0 | 0.0 | 0.00 | 0.01 | 0.01 | 74 | 1010.6 |
| 20260904180329 | 89 | 348 | 1.0 | 1.0 | 0.00 | 0.01 | 0.01 | 72 | 1010.5 |
| 20260904175828 | 89 | 353 | 2.0 | 2.0 | 0.00 | 0.01 | 0.01 | 71 | 1011.0 |
| 20260904175326 | 90 | 343 | 1.0 | 1.0 | 0.00 | 0.01 | 0.01 | 67 | 1010.5 |
| 20260904174821 | 89 | 0 | 0.0 | 1.0 | 0.00 | 0.01 | 0.01 | 75 | 1010.9 |
| 20260904174317 | 88 | 4 | 1.0 | 1.0 | 0.00 | 0.01 | 0.01 | 73 | 1010.8 |
| 20260904173813 | 88 | 27 | 3.0 | 4.0 | 0.00 | 0.01 | 0.01 | 69 | 1010.9 |
| 20260904173308 | 88 | 297 | 1.0 | 2.0 | 0.00 | 0.01 | 0.01 | 74 | 1010.8 |
| 20260904172804 | 89 | 4 | 0.0 | 1.0 | 0.00 | 0.01 | 0.01 | 68 | 1011.0 |
| 20260904172305 | 89 | 336 | 1.0 | 1.0 | 0.00 | 0.01 | 0.01 | 71 | 1010.9 |
| 20260904171758 | 89 | 348 | 0.0 | 1.0 | 0.00 | 0.01 | 0.01 | 69 | 1011.3 |
| 20260904171253 | 89 | 343 | 0.0 | 1.0 | 0.00 | 0.01 | 0.01 | 73 | 1011.2 |
| 20260904170750 | 87 | 7 | 1.0 | 2.0 | 0.00 | 0.01 | 0.01 | 73 | 1011.1 |
| 20260904170246 | 88 | 340 | 0.0 | 0.0 | 0.00 | 0.01 | 0.01 | 70 | 1011.2 |
| 20260904165744 | 87 | 344 | 0.0 | 0.0 | 0.00 | 0.01 | 0.01 | 73 | 1011.4 |
| 20260904165238 | 87 | 341 | 1.0 | 1.0 | 0.00 | 0.01 | 0.01 | 72 | 1011.0 |
| 20260904164732 | 86 | 313 | 1.0 | 1.0 | 0.00 | 0.01 | 0.01 | 75 | 1011.6 |
| 20260904164227 | 86 | 318 | 1.0 | 2.0 | 0.00 | 0.01 | 0.01 | 77 | 1011.7 |
| 20260904163724 | 87 | 314 | 1.0 | 1.0 | 0.00 | 0.01 | 0.01 | 74 | 1011.5 |
| 20260904163219 | 87 | 344 | 1.0 | 1.0 | 0.00 | 0.01 | 0.01 | 71 | 1011.5 |
| 20260904162718 | 87 | 0 | 0.0 | 1.0 | 0.00 | 0.01 | 0.01 | 72 | 1011.7 |
| 20260904162213 | 87 | 334 | 1.0 | 1.0 | 0.00 | 0.01 | 0.01 | 72 | 1011.9 |
| 20260904161709 | 86 | 340 | 0.0 | 0.0 | 0.00 | 0.01 | 0.01 | 75 | 1011.9 |
| 20260904161203 | 86 | 55 | 2.0 | 4.0 | 0.00 | 0.01 | 0.01 | 70 | 1011.8 |
| 20260904160659 | 87 | 72 | 1.0 | 2.0 | 0.00 | 0.01 | 0.01 | 70 | 1011.8 |
| 20260904160154 | 87 | 349 | 0.0 | 0.0 | 0.00 | 0.01 | 0.01 | 74 | 1012.0 |
| 20260904155649 | 86 | 19 | 1.0 | 1.0 | 0.00 | 0.01 | 0.01 | 71 | 1011.7 |
| 20260904155148 | 86 | 25 | 0.0 | 1.0 | 0.00 | 0.01 | 0.01 | 69 | 1012.0 |
| 20260904154648 | 85 | 344 | 0.0 | 0.0 | 0.00 | 0.01 | 0.01 | 73 | 1011.8 |
| 20260904154147 | 85 | 10 | 1.0 | 1.0 | 0.00 | 0.01 | 0.01 | 71 | 1011.9 |
| 20260904153643 | 84 | 7 | 2.0 | 2.0 | 0.00 | 0.01 | 0.01 | 78 | 1012.0 |
| 20260904153138 | 85 | 27 | 2.0 | 2.0 | 0.00 | 0.01 | 0.01 | 72 | 1011.9 |
| 20260904152635 | 85 | 317 | 2.0 | 3.0 | 0.00 | 0.01 | 0.01 | 74 | 1012.0 |
| 20260904152130 | 85 | 345 | 0.0 | 1.0 | 0.00 | 0.01 | 0.01 | 72 | 1012.0 |
| 20260904151625 | 84 | 0 | 1.0 | 2.0 | 0.00 | 0.01 | 0.01 | 73 | 1011.7 |
| 20260904151123 | 84 | 345 | 2.0 | 2.0 | 0.00 | 0.01 | 0.01 | 73 | 1011.8 |
| 20260904150619 | 83 | 1 | 1.0 | 2.0 | 0.00 | 0.01 | 0.01 | 76 | 1011.9 |
| 20260904150114 | 83 | 356 | 3.0 | 3.0 | 0.00 | 0.01 | 0.01 | 74 | 1012.1 |
| 20260904145613 | 82 | 236 | 2.0 | 3.0 | 0.00 | 0.01 | 0.01 | 77 | 1011.9 |
| 20260904145108 | 82 | 12 | 0.0 | 0.0 | 0.00 | 0.01 | 0.01 | 83 | 1011.9 |
| 20260904144604 | 83 | 354 | 0.0 | 0.0 | 0.00 | 0.01 | 0.01 | 76 | 1011.9 |
| 20260904144059 | 83 | 346 | 0.0 | 1.0 | 0.00 | 0.01 | 0.01 | 78 | 1011.9 |
| 20260904143555 | 82 | 343 | 2.0 | 3.0 | 0.00 | 0.01 | 0.01 | 75 | 1012.1 |
| 20260904143052 | 82 | 19 | 0.0 | 0.0 | 0.00 | 0.01 | 0.01 | 74 | 1012.1 |
| 20260904142548 | 82 | 27 | 0.0 | 1.0 | 0.00 | 0.01 | 0.01 | 85 | 1012.1 |
| 20260904142043 | 82 | 25 | 0.0 | 1.0 | 0.00 | 0.01 | 0.01 | 81 | 1012.2 |
| 20260904141538 | 81 | 11 | 0.0 | 0.0 | 0.00 | 0.01 | 0.01 | 82 | 1012.2 |
| 20260904141034 | 81 | 26 | 0.0 | 0.0 | 0.00 | 0.01 | 0.01 | 84 | 1012.1 |
| 20260904140534 | 81 | 66 | 1.0 | 2.0 | 0.00 | 0.01 | 0.01 | 82 | 1012.2 |
| 20260904140028 | 80 | 31 | 1.0 | 1.0 | 0.00 | 0.01 | 0.01 | 80 | 1012.4 |
| 20260904135527 | 80 | 28 | 0.0 | 1.0 | 0.00 | 0.01 | 0.01 | 85 | 1012.1 |
| 20260904135024 | 79 | 26 | 0.0 | 0.0 | 0.00 | 0.01 | 0.01 | 84 | 1012.2 |
| 20260904134519 | 78 | 51 | 2.0 | 2.0 | 0.00 | 0.01 | 0.01 | 86 | 1012.3 |
| 20260904134013 | 79 | 33 | 0.0 | 1.0 | 0.00 | 0.01 | 0.01 | 84 | 1012.2 |
| 20260904133507 | 77 | 35 | 0.0 | 0.0 | 0.00 | 0.01 | 0.01 | 88 | 1012.2 |
| 20260904133004 | 79 | 35 | 0.0 | 0.0 | 0.00 | 0.01 | 0.01 | 84 | 1012.1 |
| 20260904132458 | 78 | 36 | 0.0 | 0.0 | 0.00 | 0.01 | 0.01 | 84 | 1012.2 |
| 20260904131958 | 77 | 18 | 1.0 | 1.0 | 0.00 | 0.01 | 0.01 | 84 | 1012.2 |
| 20260904131453 | 76 | 12 | 1.0 | 1.0 | 0.00 | 0.01 | 0.01 | 85 | 1012.1 |
| 20260904130949 | 75 | 313 | 4.0 | 4.0 | 0.00 | 0.01 | 0.01 | 86 | 1012.4 |
| 20260904130448 | 74 | 332 | 1.0 | 1.0 | 0.00 | 0.01 | 0.01 | 91 | 1012.2 |
| 20260904125942 | 74 | 22 | 0.0 | 0.0 | 0.00 | 0.01 | 0.01 | 91 | 1012.2 |
| 20260904125439 | 74 | 17 | 0.0 | 0.0 | 0.00 | 0.01 | 0.01 | 89 | 1012.4 |
| 20260904124938 | 73 | 343 | 0.0 | 0.0 | 0.00 | 0.01 | 0.01 | 90 | 1012.2 |
| 20260904124434 | 73 | 350 | 0.0 | 1.0 | 0.00 | 0.01 | 0.01 | 92 | 1012.2 |
| 20260904123930 | 72 | 330 | 2.0 | 2.0 | 0.00 | 0.01 | 0.01 | 92 | 1012.3 |
| 20260904123430 | 71 | 5 | 0.0 | 0.0 | 0.00 | 0.01 | 0.01 | 96 | 1012.4 |
| 20260904122925 | 71 | 4 | 0.0 | 0.0 | 0.00 | 0.01 | 0.01 | 95 | 1012.1 |
| 20260904122425 | 71 | 6 | 0.0 | 0.0 | 0.00 | 0.01 | 0.01 | 97 | 1012.2 |
| 20260904121919 | 70 | 7 | 0.0 | 0.0 | 0.00 | 0.01 | 0.01 | 98 | 1012.3 |
| 20260904121416 | 70 | 339 | 1.0 | 1.0 | 0.00 | 0.01 | 0.01 | 99 | 1012.1 |
| 20260904120907 | 70 | 354 | 0.0 | 0.0 | 0.00 | 0.01 | 0.01 | 99 | 1012.4 |
| 20260904120403 | 70 | 343 | 0.0 | 0.0 | 0.00 | 0.01 | 0.01 | 99 | 1012.2 |
| 20260904115858 | 71 | 356 | 0.0 | 0.0 | 0.00 | 0.01 | 0.01 | 98 | 1012.1 |
| 20260904115352 | 71 | 355 | 0.0 | 0.0 | 0.00 | 0.01 | 0.01 | 98 | 1012.2 |
| 20260904114847 | 70 | 355 | 0.0 | 0.0 | 0.00 | 0.01 | 0.01 | 97 | 1011.8 |
| 20260904114341 | 70 | 353 | 0.0 | 1.0 | 0.00 | 0.01 | 0.01 | 98 | 1012.0 |
| 20260904113836 | 70 | 325 | 0.0 | 0.0 | 0.00 | 0.01 | 0.01 | 99 | 1011.8 |
| 20260904113336 | 70 | 324 | 0.0 | 0.0 | 0.00 | 0.01 | 0.01 | 98 | 1011.8 |
| 20260904112825 | 70 | 322 | 1.0 | 1.0 | 0.00 | 0.01 | 0.01 | 97 | 1011.5 |
| 20260904112321 | 70 | 304 | 0.0 | 0.0 | 0.00 | 0.01 | 0.01 | 97 | 1011.7 |
| 20260904111817 | 70 | 47 | 1.0 | 2.0 | 0.00 | 0.01 | 0.01 | 96 | 1011.5 |
| 20260904111312 | 70 | 340 | 1.0 | 1.0 | 0.00 | 0.01 | 0.01 | 99 | 1011.7 |
| 20260904110808 | 70 | 328 | 1.0 | 1.0 | 0.00 | 0.01 | 0.01 | 97 | 1011.8 |
| 20260904110307 | 70 | 351 | 0.0 | 0.0 | 0.00 | 0.01 | 0.01 | 99 | 1012.0 |
| 20260904105802 | 70 | 43 | 1.0 | 1.0 | 0.00 | 0.01 | 0.01 | 99 | 1011.9 |
| 20260904105305 | 70 | 330 | 1.0 | 1.0 | 0.00 | 0.01 | 0.01 | 96 | 1012.1 |
| 20260904104757 | 69 | 321 | 1.0 | 2.0 | 0.00 | 0.01 | 0.01 | 99 | 1011.8 |
| 20260904104253 | 69 | 343 | 0.0 | 1.0 | 0.00 | 0.01 | 0.01 | 99 | 1011.9 |
| 20260904103749 | 69 | 326 | 0.0 | 0.0 | 0.00 | 0.01 | 0.01 | 99 | 1011.6 |
| 20260904103243 | 69 | 326 | 0.0 | 0.0 | 0.00 | 0.01 | 0.01 | 99 | 1011.7 |
| 20260904102739 | 69 | 313 | 0.0 | 0.0 | 0.00 | 0.01 | 0.01 | 98 | 1011.6 |
| 20260904102234 | 69 | 359 | 0.0 | 0.0 | 0.00 | 0.01 | 0.01 | 99 | 1011.8 |
| 20260904101731 | 70 | 14 | 0.0 | 0.0 | 0.00 | 0.01 | 0.01 | 98 | 1011.8 |
| 20260904101226 | 70 | 328 | 2.0 | 2.0 | 0.00 | 0.01 | 0.01 | 97 | 1011.9 |
| 20260904100722 | 69 | 319 | 2.0 | 2.0 | 0.00 | 0.01 | 0.01 | 99 | 1011.8 |
| 20260904100218 | 69 | 354 | 0.0 | 1.0 | 0.00 | 0.01 | 0.01 | 99 | 1011.8 |
| 20260904095717 | 69 | 3 | 0.0 | 0.0 | 0.00 | 0.01 | 0.01 | 99 | 1011.5 |
| 20260904095212 | 69 | 353 | 2.0 | 2.0 | 0.00 | 0.01 | 0.01 | 99 | 1011.6 |
| 20260904094708 | 68 | 341 | 2.0 | 2.0 | 0.00 | 0.01 | 0.01 | 99 | 1011.8 |
| 20260904094203 | 68 | 343 | 1.0 | 2.0 | 0.00 | 0.01 | 0.01 | 99 | 1011.8 |
| 20260904093700 | 68 | 338 | 2.0 | 2.0 | 0.00 | 0.01 | 0.01 | 99 | 1011.7 |
| 20260904093159 | 68 | 353 | 1.0 | 2.0 | 0.00 | 0.01 | 0.01 | 99 | 1011.6 |
| 20260904092655 | 68 | 353 | 0.0 | 0.0 | 0.00 | 0.01 | 0.01 | 99 | 1011.6 |
| 20260904092151 | 68 | 359 | 1.0 | 1.0 | 0.00 | 0.01 | 0.01 | 99 | 1011.3 |
| 20260904091647 | 68 | 352 | 1.0 | 1.0 | 0.00 | 0.01 | 0.01 | 99 | 1011.4 |
| 20260904091147 | 67 | 359 | 1.0 | 2.0 | 0.00 | 0.01 | 0.01 | 99 | 1011.5 |
| 20260904090642 | 66 | 2 | 0.0 | 0.0 | 0.00 | 0.01 | 0.01 | 99 | 1010.8 |
| 20260904090137 | 66 | 2 | 0.0 | 0.0 | 0.00 | 0.01 | 0.01 | 99 | 1010.4 |
| 20260904085637 | 66 | 2 | 0.0 | 0.0 | 0.00 | 0.01 | 0.01 | 99 | 1010.6 |
| 20260904085132 | 66 | 2 | 0.0 | 0.0 | 0.00 | 0.01 | 0.01 | 99 | 1010.4 |
| 20260904084627 | 66 | 2 | 0.0 | 0.0 | 0.00 | 0.01 | 0.01 | 99 | 1010.4 |
| 20260904084124 | 66 | 2 | 0.0 | 0.0 | 0.00 | 0.01 | 0.01 | 99 | 1010.2 |
| 20260904083620 | 66 | 2 | 0.0 | 0.0 | 0.00 | 0.01 | 0.01 | 99 | 1010.4 |
| 20260904083115 | 66 | 2 | 0.0 | 0.0 | 0.00 | 0.01 | 0.01 | 99 | 1010.3 |
| 20260904082610 | 66 | 2 | 0.0 | 0.0 | 0.00 | 0.01 | 0.01 | 99 | 1010.5 |
| 20260904082106 | 66 | 2 | 0.0 | 0.0 | 0.00 | 0.01 | 0.01 | 99 | 1010.6 |
| 20260904081601 | 66 | 2 | 0.0 | 0.0 | 0.00 | 0.01 | 0.01 | 99 | 1010.6 |
| 20260904081056 | 66 | 2 | 0.0 | 0.0 | 0.00 | 0.01 | 0.01 | 99 | 1010.9 |
| 20260904080551 | 66 | 2 | 0.0 | 0.0 | 0.00 | 0.01 | 0.01 | 99 | 1011.1 |
| 20260904080048 | 66 | 2 | 0.0 | 0.0 | 0.00 | 0.01 | 0.01 | 99 | 1011.1 |
| 20260904075543 | 66 | 2 | 0.0 | 0.0 | 0.00 | 0.01 | 0.01 | 99 | 1011.0 |
| 20260904075038 | 66 | 2 | 0.0 | 0.0 | 0.00 | 0.01 | 0.01 | 99 | 1011.1 |
| 20260904074537 | 66 | 3 | 0.0 | 0.0 | 0.00 | 0.01 | 0.01 | 99 | 1011.0 |
| 20260904074032 | 66 | 3 | 0.0 | 0.0 | 0.00 | 0.01 | 0.01 | 99 | 1011.1 |
| 20260904073527 | 66 | 3 | 0.0 | 0.0 | 0.00 | 0.01 | 0.01 | 99 | 1011.2 |
| 20260904073023 | 66 | 2 | 0.0 | 0.0 | 0.00 | 0.01 | 0.01 | 99 | 1011.1 |
| 20260904072519 | 66 | 2 | 0.0 | 0.0 | 0.00 | 0.01 | 0.01 | 99 | 1010.9 |
| 20260904072014 | 66 | 2 | 0.0 | 0.0 | 0.00 | 0.01 | 0.01 | 99 | 1010.6 |
| 20260904071510 | 66 | 1 | 0.0 | 0.0 | 0.00 | 0.01 | 0.01 | 99 | 1010.6 |
| 20260904071004 | 66 | 1 | 0.0 | 0.0 | 0.00 | 0.01 | 0.01 | 99 | 1010.5 |
| 20260904070503 | 66 | 1 | 0.0 | 0.0 | 0.00 | 0.01 | 0.01 | 99 | 1010.6 |
| 20260904065957 | 66 | 1 | 0.0 | 0.0 | 0.00 | 0.01 | 0.01 | 99 | 1010.4 |
| 20260904065453 | 66 | 1 | 0.0 | 0.0 | 0.00 | 0.01 | 0.01 | 99 | 1010.4 |
| 20260904064948 | 66 | 1 | 0.0 | 0.0 | 0.00 | 0.01 | 0.01 | 99 | 1010.5 |
| 20260904064444 | 66 | 1 | 0.0 | 0.0 | 0.00 | 0.01 | 0.01 | 99 | 1010.5 |
| 20260904063939 | 66 | 1 | 0.0 | 0.0 | 0.00 | 0.01 | 0.01 | 99 | 1010.6 |
| 20260904063436 | 66 | 2 | 0.0 | 0.0 | 0.00 | 0.01 | 0.01 | 99 | 1010.9 |
| 20260904062931 | 66 | 2 | 0.0 | 0.0 | 0.00 | 0.01 | 0.01 | 99 | 1010.8 |
| 20260904062427 | 66 | 2 | 0.0 | 0.0 | 0.00 | 0.01 | 0.01 | 99 | 1010.8 |
| 20260904061922 | 66 | 2 | 0.0 | 0.0 | 0.00 | 0.01 | 0.01 | 99 | 1010.5 |
| 20260904061419 | 66 | 2 | 0.0 | 0.0 | 0.00 | 0.01 | 0.01 | 99 | 1010.8 |
| 20260904060915 | 66 | 2 | 0.0 | 0.0 | 0.00 | 0.01 | 0.01 | 99 | 1010.5 |
| 20260904060410 | 67 | 2 | 0.0 | 0.0 | 0.00 | 0.01 | 0.01 | 99 | 1011.1 |
| 20260904055906 | 67 | 2 | 0.0 | 0.0 | 0.00 | 0.01 | 0.01 | 99 | 1010.8 |
| 20260904055401 | 67 | 2 | 0.0 | 0.0 | 0.00 | 0.01 | 0.01 | 99 | 1011.2 |
| 20260904054856 | 67 | 1 | 0.0 | 0.0 | 0.00 | 0.01 | 0.01 | 99 | 1011.3 |
| 20260904054352 | 67 | 1 | 0.0 | 0.0 | 0.00 | 0.01 | 0.01 | 99 | 1011.1 |
| 20260904053848 | 67 | 2 | 0.0 | 0.0 | 0.00 | 0.01 | 0.01 | 99 | 1011.2 |
| 20260904053347 | 67 | 1 | 0.0 | 0.0 | 0.00 | 0.01 | 0.01 | 99 | 1011.3 |
| 20260904052843 | 67 | 2 | 0.0 | 0.0 | 0.00 | 0.01 | 0.01 | 99 | 1011.5 |
| 20260904052339 | 67 | 2 | 0.0 | 0.0 | 0.00 | 0.01 | 0.01 | 99 | 1011.3 |
| 20260904051835 | 68 | 1 | 0.0 | 0.0 | 0.00 | 0.01 | 0.01 | 99 | 1011.5 |
| 20260904051331 | 68 | 2 | 0.0 | 0.0 | 0.00 | 0.01 | 0.01 | 99 | 1011.8 |
| 20260904050830 | 68 | 1 | 0.0 | 0.0 | 0.00 | 0.01 | 0.01 | 99 | 1012.0 |
| 20260904050328 | 68 | 2 | 0.0 | 0.0 | 0.00 | 0.01 | 0.01 | 99 | 1011.9 |
| 20260904045827 | 68 | 1 | 0.0 | 0.0 | 0.00 | 0.01 | 0.01 | 99 | 1012.1 |